Theta_e
326 324 323 324 325 326 325 323 328 328 327 330 331 330 325 325 322 317 320 319 321 321 319 322 321 327 329 327 333 331 330 337 341 343 347 339 333 336 336 334 336 335 334 334 335 336 335 337 337 330 321 316 319 316 312 313 315 318 319 320 319 318 318 316 315 313 311 311 320 327 328 329 330 332 332 332 332 332 331 331 330 328 328 326 323 322 324 322 319 320 322 326 326 325 326 324 318
326 325 323 324 326 327 326 324 332 333 330 331 329 330 327 323 321 322 325 323 323 321 320 321 321 325 324 323 327 325 326 330 332 336 334 332 336 336 336 335 335 335 335 334 335 336 335 338 332 320 314 315 321 315 311 313 315 320 321 322 321 319 318 319 316 313 312 309 313 321 326 328 329 330 331 332 331 331 330 329 328 325 320 319 319 317 319 320 317 315 315 320 323 322 323 323 316
325 325 323 325 328 326 326 326 333 331 326 329 330 330 325 321 325 326 322 320 320 320 322 321 320 322 320 320 322 322 326 326 327 330 328 333 338 335 337 335 336 336 335 335 335 336 335 337 328 315 313 317 323 315 311 315 316 322 322 323 323 320 319 319 319 316 313 310 309 312 318 323 326 329 329 329 329 329 328 326 325 321 313 315 319 314 313 314 313 312 311 314 316 314 316 319 317
324 324 323 326 327 326 330 329 335 332 325 329 330 329 329 326 327 324 318 315 318 321 322 320 321 321 319 321 322 323 322 322 324 327 327 333 337 336 337 335 336 336 335 336 335 336 335 336 327 314 313 318 325 317 313 317 319 324 324 325 326 322 321 320 321 319 316 312 309 309 310 313 318 322 321 322 322 322 324 323 319 314 309 310 312 309 309 310 309 308 307 309 309 309 309 312 312
323 324 323 326 327 326 330 327 331 329 324 331 330 330 334 331 326 322 318 315 318 321 320 318 322 322 321 322 323 324 322 322 324 325 329 334 337 336 337 336 336 336 336 336 335 336 335 336 329 318 312 317 326 322 320 321 321 325 326 328 330 327 323 321 322 322 320 315 311 309 309 309 310 312 312 313 314 316 319 318 311 308 307 307 307 306 307 307 307 307 307 307 307 308 307 308 308
323 323 323 326 327 325 329 328 329 329 326 329 330 333 334 328 322 319 317 318 320 319 319 319 321 323 324 324 324 324 323 327 324 325 332 334 336 337 337 336 336 336 336 335 336 336 335 336 333 323 313 315 325 327 326 324 323 325 326 330 332 332 328 323 322 324 323 320 316 311 309 309 308 309 309 308 311 314 312 310 308 307 307 307 307 307 307 307 307 307 307 307 307 307 307 307 307
322 323 323 326 328 327 333 335 334 335 328 324 328 333 331 323 316 316 319 320 321 318 319 320 319 322 324 325 327 324 325 330 324 325 332 332 335 337 336 335 336 336 335 335 336 336 335 336 335 327 315 313 320 325 326 324 326 325 326 330 332 333 332 328 324 324 325 323 320 316 312 310 309 308 308 307 311 312 308 307 308 308 308 308 308 307 308 308 307 307 307 307 307 307 307 307 307
321 322 323 327 333 330 334 335 334 334 328 322 323 325 325 320 315 318 321 319 320 319 319 320 319 321 322 323 327 325 325 327 323 325 328 328 335 336 335 336 336 336 336 336 335 336 336 335 336 330 318 313 315 319 323 323 326 326 325 329 331 332 332 332 329 326 326 326 324 321 317 312 309 309 308 307 309 309 307 308 308 308 308 308 308 308 308 308 308 308 308 307 308 308 307 307 307
320 322 324 329 333 333 335 335 334 331 329 326 323 320 319 320 317 319 322 318 318 318 318 321 319 318 320 323 325 324 325 325 322 325 326 327 334 335 335 336 336 337 337 336 335 336 335 335 336 332 321 317 314 313 316 320 325 326 325 328 331 331 332 333 332 330 328 327 326 324 322 317 312 309 309 308 308 308 308 308 308 308 308 308 308 308 308 308 308 308 308 308 308 308 308 308 308
319 322 327 331 332 334 336 335 336 334 333 330 324 322 322 322 319 317 320 320 317 317 319 320 319 318 320 323 324 324 325 324 321 324 326 328 331 333 335 336 337 338 337 337 336 335 335 335 336 334 326 323 318 312 313 317 321 323 323 327 329 331 331 331 333 333 331 329 328 327 325 322 317 313 310 309 308 308 308 308 308 308 308 308 308 308 308 308 308 308 308 308 308 309 308 308 308
320 322 324 329 332 335 336 335 337 338 336 331 326 326 324 324 320 316 317 318 317 317 318 319 319 318 322 324 322 323 325 323 321 322 325 328 330 332 335 336 337 337 337 337 336 335 335 335 336 335 332 329 319 312 312 313 315 316 319 324 328 330 330 331 332 333 333 331 329 328 328 325 321 316 312 310 309 309 308 308 308 308 308 308 308 308 308 308 308 308 308 308 309 308 308 309 308
320 325 329 332 337 336 335 337 338 339 339 338 334 326 320 320 319 318 317 317 316 316 317 319 319 320 326 328 324 322 324 323 321 321 324 327 329 331 334 335 336 337 337 337 336 336 335 335 336 335 335 331 320 310 311 311 312 313 314 321 326 329 329 330 331 332 334 333 331 330 329 328 325 321 316 312 310 309 309 308 308 308 308 308 308 308 308 308 308 308 309 308 309 309 308 308 308
319 326 333 333 336 338 336 338 338 337 340 341 333 321 316 316 317 318 317 316 315 316 319 319 319 320 325 328 325 323 323 322 321 321 323 327 329 330 333 335 336 337 337 337 336 336 335 335 335 335 334 333 323 309 310 310 310 311 311 316 322 326 328 329 330 332 333 333 333 332 330 329 328 326 322 317 312 309 309 308 309 309 309 308 308 308 308 308 308 308 309 308 308 308 308 309 308
320 322 329 330 332 337 338 337 335 334 339 339 328 317 315 316 316 317 317 317 315 316 319 318 319 320 322 326 325 323 323 322 321 321 323 326 329 330 332 334 336 337 337 337 336 336 336 336 335 335 334 334 325 310 309 310 309 311 310 312 315 321 324 327 330 331 332 333 334 333 332 331 329 328 326 323 318 312 310 309 308 308 309 309 308 308 308 308 308 308 308 309 308 308 308 308 308
319 321 329 333 331 334 334 334 334 334 338 336 324 316 315 316 317 317 316 319 317 316 319 318 318 318 321 325 323 322 322 322 322 321 323 325 328 330 332 334 335 336 337 336 335 335 336 336 335 335 333 334 326 311 308 310 309 310 310 310 310 314 317 322 327 330 331 332 333 334 333 332 331 330 328 326 323 317 312 310 308 308 308 308 309 308 309 308 308 308 308 308 308 309 308 309 308
319 323 331 332 332 332 330 332 334 334 337 332 322 317 316 317 317 316 316 318 318 317 318 318 318 319 321 323 321 321 322 323 322 322 323 325 327 330 331 333 335 336 336 335 334 333 334 336 335 335 334 332 325 312 308 310 309 309 309 310 309 310 311 314 319 325 329 331 332 334 334 334 332 331 329 327 325 321 316 313 309 308 309 308 309 309 309 309 309 309 309 309 308 309 308 308 309
319 324 330 328 330 329 328 333 335 334 335 327 321 319 318 320 317 316 317 317 318 317 318 320 319 319 321 322 322 322 322 323 323 322 324 325 327 330 331 333 335 336 336 335 334 332 331 334 335 335 332 330 323 312 308 309 309 309 309 309 309 309 310 310 312 315 321 328 332 333 334 334 333 332 330 328 326 324 320 317 312 309 309 308 308 308 309 309 309 309 308 309 308 309 309 309 309
320 326 330 326 327 326 328 333 331 331 330 324 322 320 321 323 318 317 319 317 318 318 318 320 320 319 320 322 322 322 322 323 323 322 322 325 326 328 330 331 334 335 335 334 334 332 330 331 333 333 331 327 320 312 309 309 309 309 309 309 309 309 309 309 310 310 313 323 331 332 333 334 334 333 331 329 328 325 321 320 316 311 309 308 308 308 308 309 309 309 309 309 309 309 309 309 309
321 327 328 323 325 324 324 329 326 327 327 323 322 321 321 323 319 317 320 319 318 321 321 320 321 320 319 321 322 323 323 323 323 322 321 322 324 324 326 328 331 333 333 333 333 332 330 328 328 328 326 324 320 312 309 309 309 309 309 309 309 309 309 309 310 309 310 316 325 330 333 333 332 332 331 329 328 325 322 321 318 313 310 308 308 308 308 309 309 309 309 309 309 309 309 309 309
321 324 325 322 323 322 321 324 325 325 324 322 321 321 321 322 321 319 318 318 319 323 322 320 321 320 319 320 322 323 324 323 323 323 322 322 322 322 323 324 326 327 328 330 332 332 332 329 325 323 321 320 318 312 309 309 309 309 309 309 309 309 309 309 309 310 310 311 316 324 331 331 331 330 329 329 327 324 322 320 318 314 310 309 309 308 308 309 308 308 308 309 309 309 309 309 309
322 322 325 323 320 320 320 321 323 324 322 321 320 320 321 321 321 320 317 318 322 321 320 321 321 320 320 320 322 324 324 324 323 323 324 324 323 322 322 322 322 323 325 329 331 331 331 331 328 324 319 316 314 311 309 309 309 309 309 308 309 310 310 310 309 310 310 310 311 317 326 330 329 327 326 325 325 322 320 318 316 314 311 309 309 309 308 308 308 308 309 309 309 309 309 310 310
321 321 321 320 319 319 319 319 321 322 321 321 320 320 321 320 320 320 319 320 322 320 320 321 320 320 321 320 322 323 324 323 323 323 323 324 324 323 323 323 324 324 325 327 328 328 329 330 329 326 320 315 312 310 309 309 309 309 309 309 309 310 310 310 310 310 310 311 311 312 319 324 323 322 320 320 320 319 318 315 314 313 312 311 310 309 309 309 309 309 309 309 310 310 310 310 310
319 319 317 317 317 318 318 318 319 319 320 320 319 319 320 319 319 320 320 321 322 322 323 323 321 321 320 321 322 322 324 323 323 322 322 322 323 322 322 323 323 323 323 323 324 326 328 328 328 326 321 315 312 310 310 309 309 309 309 309 309 309 310 310 310 310 311 311 311 312 314 316 316 316 315 314 314 314 314 313 312 312 311 311 311 311 310 310 310 310 310 310 310 311 311 311 311
317 318 317 317 317 317 318 318 318 318 319 319 319 319 319 319 320 320 321 321 322 323 324 323 323 323 321 321 322 322 323 323 322 322 321 322 322 322 323 323 323 323 323 322 323 325 326 327 327 325 320 315 312 311 310 310 309 310 310 309 309 309 309 310 310 310 311 311 311 312 312 313 312 312 312 312 311 312 311 312 311 311 311 311 312 312 312 311 311 311 311 311 311 311 311 311 311
317 318 316 316 317 316 318 319 319 319 319 319 318 318 318 319 320 321 321 320 322 322 323 323 324 325 324 322 322 323 323 323 323 322 322 323 324 324 325 325 325 325 324 322 323 323 324 326 326 325 319 314 312 311 310 310 309 310 310 310 310 309 309 309 310 310 310 310 310 311 311 311 311 311 311 311 311 311 311 311 311 311 311 311 311 312 312 312 312 312 311 311 310 310 310 310 310
315 316 315 315 316 316 317 319 319 318 319 319 319 319 319 319 319 321 320 320 321 322 322 323 324 325 324 323 322 323 324 324 324 323 323 324 324 324 324 325 325 324 323 322 323 323 323 325 326 324 320 315 312 311 310 310 310 310 310 310 310 310 310 310 309 310 310 310 310 310 310 310 311 311 311 311 311 311 311 311 311 311 311 311 311 311 311 311 311 310 310 309 309 309 309 309 309
315 315 314 315 315 315 316 317 318 318 319 319 320 322 320 317 319 322 322 322 323 323 323 323 324 324 324 323 323 324 324 324 325 324 324 324 323 323 322 323 323 323 323 323 322 322 323 324 324 323 322 318 314 311 310 310 310 310 310 310 310 310 310 310 310 310 310 310 310 310 310 310 311 311 311 311 311 311 311 311 311 310 310 310 310 310 310 310 310 309 309 309 308 308 308 308 309
315 315 316 317 314 314 314 315 318 318 320 318 319 321 319 317 319 322 321 320 322 321 322 321 321 323 323 324 324 324 325 325 325 325 325 324 323 322 321 320 320 322 322 321 321 322 322 322 323 323 322 321 317 312 310 310 310 310 310 310 310 310 310 310 310 310 310 310 310 310 310 310 310 310 310 311 310 310 310 310 310 309 309 309 309 309 309 309 309 309 308 308 308 308 308 308 308
315 314 318 320 317 317 313 313 316 317 319 318 318 320 320 320 321 321 320 319 320 320 320 320 320 321 322 323 323 324 324 325 326 325 325 325 325 324 322 320 320 320 321 321 322 321 320 320 321 322 322 321 317 313 311 310 310 310 310 310 310 311 310 311 311 311 311 311 311 310 310 310 310 310 310 310 310 309 309 309 309 309 309 308 309 308 308 308 308 308 308 308 308 308 308 309 308
316 314 316 320 319 319 312 310 315 316 319 318 318 322 323 324 321 319 320 319 319 320 320 320 320 320 321 322 322 323 323 323 324 323 323 324 325 325 324 323 321 320 320 321 321 320 320 319 319 320 321 320 317 315 313 310 310 310 310 311 311 311 311 311 311 311 311 311 311 310 310 310 310 310 310 310 309 309 309 309 309 309 309 308 308 308 308 308 308 308 308 308 308 308 309 309 309
318 314 316 319 316 319 314 309 313 316 318 318 320 323 323 326 323 318 320 318 317 318 319 320 320 320 320 320 321 321 321 321 322 322 322 323 324 326 325 325 323 322 321 321 320 320 320 320 319 319 319 318 317 316 313 311 311 310 310 311 311 311 311 311 311 311 311 311 310 310 310 310 310 310 310 309 309 309 309 309 309 309 309 309 309 308 309 308 308 309 309 309 309 309 309 309 309
318 315 318 318 314 320 316 308 310 314 314 315 319 325 325 326 321 317 318 316 316 316 317 318 318 319 319 319 319 319 319 319 320 320 321 321 323 324 325 325 325 324 322 321 320 320 320 320 319 318 318 317 316 315 314 313 311 311 311 311 311 311 311 311 311 311 310 310 310 310 310 310 310 310 310 310 309 309 309 309 310 309 309 309 309 309 309 309 309 309 309 309 309 309 309 309 309
318 317 320 317 316 319 314 308 308 310 313 314 316 320 324 322 315 313 315 313 314 314 314 315 316 317 317 317 318 318 318 318 319 319 319 320 321 322 323 324 326 325 325 323 322 321 321 320 320 319 318 316 315 315 315 314 312 311 310 311 311 311 311 311 311 311 311 310 310 310 310 310 310 310 310 309 309 309 310 310 310 310 310 310 309 310 309 309 309 309 309 309 309 309 309 309 309
317 319 319 316 316 315 313 313 309 309 313 314 314 314 316 317 312 312 315 313 312 312 313 313 314 315 315 315 316 316 317 318 318 318 318 319 320 320 321 322 324 325 325 325 324 323 322 321 321 320 319 317 316 315 315 314 314 313 312 311 311 311 311 311 311 311 310 310 310 310 310 310 310 310 310 310 310 310 310 310 310 310 310 310 310 310 310 310 309 309 309 309 309 308 308 308 308
314 316 316 314 317 316 316 317 312 311 315 315 316 316 315 316 313 311 314 313 311 311 312 313 314 315 315 315 315 316 317 317 318 318 318 319 319 319 319 320 321 322 323 324 325 325 324 323 322 321 320 319 318 317 315 315 315 315 314 312 312 311 311 311 311 311 311 311 311 310 310 310 310 310 310 310 310 310 310 310 310 310 310 310 310 310 310 310 309 309 309 309 308 308 309 309 309
312 313 314 314 318 320 318 318 313 311 314 316 316 316 314 315 315 312 313 313 311 311 312 314 315 316 316 316 316 316 317 317 318 318 318 319 318 318 318 318 318 319 320 322 323 324 324 324 324 323 322 321 320 319 318 316 316 315 314 314 312 311 311 311 311 311 311 311 311 311 310 311 311 311 311 311 311 311 310 311 311 310 310 310 310 310 310 309 309 309 309 308 309 309 310 310 310
314 314 316 315 317 319 317 318 316 310 314 320 316 314 313 314 316 313 310 312 311 311 312 313 314 315 316 316 316 316 316 317 317 318 318 318 318 317 316 316 315 316 316 317 320 322 323 324 324 325 324 323 321 320 319 318 317 316 314 313 312 311 311 311 311 311 311 311 311 311 311 311 311 311 311 311 311 311 311 311 311 310 310 310 310 311 310 311 310 310 310 310 310 310 311 311 311
315 315 316 316 315 317 316 316 316 311 312 318 317 315 314 313 315 311 309 312 312 310 311 312 313 314 315 315 315 315 314 314 315 315 316 316 315 315 314 314 314 314 315 315 316 319 321 323 323 324 324 324 323 322 320 319 318 317 316 314 313 312 312 311 311 311 311 311 311 311 311 311 311 311 311 311 311 311 311 311 311 311 311 311 312 312 312 312 312 312 312 311 311 311 312 312 312
314 313 314 315 314 314 315 316 316 312 311 317 318 315 313 313 314 311 308 311 311 310 311 311 313 313 314 314 313 312 312 312 313 313 314 313 313 313 313 314 314 314 314 314 315 316 318 321 322 324 324 325 325 324 322 320 319 319 318 317 317 316 315 314 313 313 313 312 312 312 312 312 311 311 311 311 311 311 311 311 311 312 312 313 313 313 313 313 313 313 313 313 313 313 313 314 314
312 313 313 314 312 311 314 315 314 312 310 314 316 314 314 313 315 314 308 308 309 310 311 311 312 312 312 312 312 311 312 312 312 312 312 313 312 313 313 313 314 314 314 314 314 315 315 317 319 322 324 325 325 326 325 323 321 320 320 319 320 320 319 318 317 315 315 314 313 313 313 313 312 312 312 312 312 312 312 313 313 314 314 314 314 314 314 314 315 315 315 315 315 315 315 316 317
311 311 311 312 312 311 313 312 312 313 312 312 314 316 319 314 314 316 310 308 310 310 311 311 311 312 311 311 311 311 311 311 311 311 311 312 312 312 312 312 313 313 314 314 314 315 315 315 316 318 322 325 326 326 326 326 324 321 320 320 321 321 320 320 319 316 315 315 314 314 314 314 314 313 314 313 314 314 314 315 315 316 316 316 316 316 317 317 317 317 317 317 317 317 318 318 319
311 309 309 310 311 311 313 313 312 316 314 311 313 317 321 316 312 315 312 312 314 310 309 310 310 311 310 310 311 310 311 310 311 311 311 312 313 312 312 311 312 312 313 315 314 315 315 315 315 316 318 322 325 327 327 327 327 325 322 321 320 320 319 318 317 316 315 315 315 315 315 315 315 316 316 316 317 318 318 319 319 319 320 320 320 320 320 320 320 320 320 320 319 320 320 321 320
311 308 308 310 311 311 314 314 313 316 312 309 314 318 318 317 315 314 314 316 318 312 308 309 309 310 310 310 310 310 310 310 311 310 310 312 313 313 312 311 312 312 313 314 315 315 315 315 316 316 316 318 321 325 327 328 328 328 325 322 320 319 319 317 315 316 316 316 316 316 317 317 318 318 319 320 320 321 322 322 322 322 323 323 323 323 323 323 323 322 322 322 322 322 323 322 322
311 308 309 311 313 313 314 315 315 315 313 312 316 315 314 317 318 315 315 317 318 313 310 309 309 309 309 309 309 310 310 310 309 308 308 309 312 314 314 313 312 312 313 314 315 315 315 315 315 316 316 317 319 322 326 328 328 328 328 326 323 321 319 317 317 318 318 318 318 318 319 319 319 320 321 322 322 323 323 323 324 323 324 323 323 324 324 324 324 324 324 324 324 324 324 323 323
310 308 309 311 313 313 314 316 318 317 314 314 315 314 312 315 318 316 316 317 315 312 311 310 308 308 308 307 308 308 308 308 307 307 307 307 309 312 313 314 313 312 313 314 315 315 315 316 315 315 316 316 318 319 323 326 328 329 329 329 327 325 322 320 319 319 319 319 319 319 320 321 322 323 324 324 324 324 324 324 324 324 324 324 324 324 324 324 324 324 324 325 325 325 324 325 324
308 307 310 312 312 313 314 316 320 319 315 314 314 313 312 314 317 317 317 317 313 311 311 309 307 307 307 306 306 306 306 306 306 305 306 306 307 309 311 314 314 313 313 314 315 316 316 316 316 315 315 316 318 319 321 324 327 329 329 329 329 328 327 325 323 322 321 320 321 322 323 324 325 325 324 324 325 325 325 325 325 325 324 324 324 324 324 324 324 325 325 325 325 325 325 326 325
306 309 313 314 314 314 315 315 316 317 315 313 312 313 313 314 317 317 315 313 311 310 310 307 306 306 305 305 304 304 305 305 305 305 305 306 307 308 310 312 315 314 314 314 315 317 317 317 316 315 315 316 317 318 320 322 325 328 329 330 330 330 329 328 327 326 324 324 324 325 326 327 327 325 323 323 324 324 324 324 325 325 325 324 324 324 324 324 324 324 325 325 325 325 325 325 325
308 314 313 313 312 312 314 313 313 315 315 312 311 312 313 314 317 317 314 311 310 309 308 307 306 305 304 304 303 303 304 304 304 304 305 305 306 307 309 310 312 314 315 315 315 316 317 317 317 316 315 316 317 318 320 322 326 328 329 329 330 330 330 330 329 328 327 327 326 327 328 327 326 325 325 324 324 324 323 324 325 325 325 325 325 324 324 324 324 324 324 324 325 325 325 325 325
311 315 314 312 310 309 312 311 310 313 312 309 309 310 311 312 315 316 314 311 309 306 306 306 305 304 303 303 303 303 303 303 304 304 304 305 305 306 307 307 309 311 312 313 314 315 316 317 317 317 317 318 318 319 322 324 326 328 328 329 329 330 330 330 330 329 329 328 328 328 328 327 327 326 326 325 324 325 324 325 325 325 325 325 325 324 324 324 324 324 324 324 325 325 325 325 326
310 311 311 312 310 309 310 307 307 311 308 306 307 308 311 313 312 312 312 309 306 304 304 305 303 303 302 302 302 303 303 303 303 304 304 305 305 305 306 306 306 308 309 311 312 313 313 315 316 317 318 318 318 319 320 322 324 326 327 327 328 328 329 328 328 328 328 328 328 328 328 327 326 326 325 325 325 325 325 325 325 325 325 324 323 323 323 323 323 324 324 324 325 325 325 326 326
308 308 309 311 310 309 310 308 308 310 307 306 308 309 313 314 310 308 306 304 303 303 304 303 302 302 301 302 302 302 303 303 303 304 304 305 305 305 306 306 306 306 308 309 309 310 310 311 313 314 316 317 318 319 319 320 321 322 323 324 324 324 324 324 325 324 324 324 324 324 324 324 324 324 324 324 324 325 325 325 325 324 324 323 323 322 322 322 323 323 324 324 324 324 325 325 326
308 308 309 310 308 308 310 308 308 309 309 309 310 311 312 312 309 307 303 301 302 303 303 302 301 301 301 301 302 302 302 303 303 304 304 305 305 305 306 306 306 306 306 307 308 308 308 309 310 311 313 315 316 318 318 319 319 320 321 321 321 321 321 320 320 319 319 320 321 321 322 322 322 323 323 323 323 324 324 324 324 324 324 324 323 323 322 322 323 323 323 323 324 324 325 326 326
308 308 308 306 304 306 309 308 307 308 309 310 311 312 312 309 308 307 304 302 302 302 301 300 300 301 301 301 302 302 302 303 303 304 304 304 305 305 306 306 306 306 306 307 307 308 308 308 308 309 310 311 313 315 316 317 318 318 319 320 320 320 321 320 320 319 319 319 320 320 320 320 320 320 321 321 321 322 323 324 324 324 324 324 323 323 323 322 323 322 323 324 324 324 326 326 327
308 308 305 303 302 306 308 308 307 307 308 310 310 312 310 308 308 307 304 302 301 300 300 300 300 300 301 301 302 302 302 303 303 303 304 304 305 305 305 306 306 306 306 306 307 307 308 308 308 308 308 309 310 311 312 314 315 316 316 317 318 318 318 319 319 319 319 319 319 319 319 318 318 319 319 319 320 321 322 323 324 324 324 323 322 322 322 322 323 323 323 323 324 325 326 327 327
305 304 303 303 304 307 307 307 307 306 306 307 308 308 307 308 308 306 304 301 300 300 300 300 300 300 301 301 302 302 302 302 303 303 303 304 304 305 305 305 305 306 306 306 306 307 307 308 308 307 307 307 308 309 309 310 312 314 315 315 315 315 316 316 316 317 317 317 317 317 317 317 317 318 318 319 320 321 322 322 322 322 321 320 319 320 321 322 322 322 322 323 324 325 326 327 327
302 302 302 304 306 306 305 305 305 306 305 305 306 306 307 310 310 305 301 300 299 299 300 300 300 300 301 301 301 302 302 302 302 302 302 302 303 304 304 304 305 305 305 305 306 306 307 307 307 307 307 307 307 308 308 308 309 312 315 316 315 314 314 315 315 315 315 315 316 316 316 316 316 316 316 317 317 318 318 318 318 318 317 317 317 318 320 321 322 322 322 323 324 326 327 327 326
302 302 302 303 304 304 304 304 305 306 305 304 304 305 305 307 307 302 299 299 299 299 299 299 300 300 301 301 301 301 301 301 301 301 301 301 302 303 304 304 304 305 305 305 305 306 306 306 307 307 307 307 308 308 308 308 307 309 313 316 317 316 315 314 313 314 314 314 315 315 315 315 315 315 316 315 315 315 315 315 315 315 316 316 317 319 321 322 323 323 323 324 325 326 327 326 325
301 302 302 302 302 302 303 303 303 304 303 302 302 303 304 304 302 299 298 298 298 299 299 299 300 301 301 301 301 301 300 300 300 300 300 300 300 301 302 303 303 304 304 305 305 305 305 306 306 306 307 307 308 308 308 308 308 308 310 313 316 318 318 316 314 313 313 313 314 314 314 314 315 315 315 315 315 315 315 314 314 315 316 317 319 321 323 324 324 324 325 325 326 327 327 326 325
Wind_Speed
13 13 14 14 12 8 3 2 1 2 2 1 3 1 4 4 1 3 5 2 1 3 4 5 8 16 9 4 11 7 5 8 7 4 2 4 4 12 16 22 22 23 28 27 28 25 23 21 18 18 16 17 16 17 18 16 14 13 13 11 10 9 8 8 7 7 7 8 12 15 13 11 10 9 9 9 8 9 8 7 8 8 9 10 8 8 9 9 9 7 6 6 6 6 7 6 5
13 13 14 14 11 4 2 3 1 2 3 2 3 3 4 4 2 5 6 5 2 0 3 7 10 12 6 4 9 4 4 8 9 6 2 3 7 14 18 23 21 22 28 27 28 25 23 21 18 17 16 18 16 18 18 16 15 14 13 12 11 9 8 8 7 7 7 7 10 13 13 12 11 10 10 10 9 10 9 7 7 8 8 9 8 9 10 10 10 11 7 4 5 4 5 5 6
13 13 14 12 6 1 3 2 1 1 2 2 5 4 2 3 4 7 9 8 1 4 7 10 9 6 4 3 5 3 3 6 9 9 5 4 11 16 20 24 20 22 28 27 27 25 23 20 19 18 17 18 16 18 19 16 16 14 13 12 11 10 9 8 7 7 6 7 7 9 11 12 12 10 10 10 10 10 10 9 8 7 6 4 4 7 10 11 8 8 7 4 4 4 4 4 5
12 14 14 9 3 2 3 2 1 4 2 3 3 5 3 3 7 9 10 9 3 7 7 7 4 2 2 0 2 2 2 4 7 8 6 5 12 17 23 25 20 23 28 27 27 24 22 21 19 18 17 17 16 18 18 16 16 14 13 12 11 10 9 8 7 6 6 6 6 7 7 9 10 10 9 9 10 8 7 8 8 8 5 2 5 7 9 9 6 4 5 5 5 4 4 4 4
12 13 11 7 2 1 3 2 2 3 4 4 2 5 5 6 7 8 6 4 6 8 2 2 1 1 2 1 2 1 1 3 3 2 3 7 12 17 25 24 21 25 27 26 25 24 22 20 19 18 17 17 16 17 16 16 16 15 14 12 11 10 10 9 8 6 6 5 6 6 6 5 6 8 8 8 8 7 6 4 4 4 3 4 7 7 8 8 6 5 5 5 4 4 3 2 2
12 12 8 5 1 2 3 1 2 2 5 5 3 6 6 7 7 7 4 1 6 6 3 2 1 2 2 1 1 1 2 2 2 1 2 8 12 19 25 23 22 26 26 25 24 23 22 20 19 17 16 16 16 16 16 17 16 15 15 14 12 11 10 9 8 7 6 5 5 5 5 4 4 5 7 7 7 7 7 4 5 4 4 6 7 7 7 7 7 6 6 5 4 4 3 2 1
13 10 6 3 1 1 2 3 4 4 5 5 5 5 6 6 4 3 2 2 3 3 4 3 4 3 1 1 1 3 5 3 3 3 4 7 11 20 24 22 23 26 25 24 23 23 21 19 19 17 16 15 16 17 18 18 15 15 16 15 13 12 11 10 9 8 6 5 5 4 4 4 4 3 4 6 6 6 5 4 5 4 4 5 6 6 6 7 6 6 6 6 5 5 4 2 1
11 8 4 1 0 2 2 2 4 4 4 4 5 7 8 7 3 2 1 2 2 3 3 4 6 3 1 2 1 5 5 3 5 5 6 6 12 21 22 21 23 23 23 23 22 22 21 19 18 16 15 14 14 16 18 19 16 16 16 15 14 13 12 11 10 9 7 6 5 4 3 3 3 3 3 4 4 4 4 4 4 4 4 4 4 5 5 6 5 6 5 5 5 4 4 3 2
8 6 2 1 1 1 0 2 3 3 4 5 5 10 12 11 7 4 3 2 2 2 3 6 7 2 3 3 2 7 6 5 7 6 7 7 12 19 20 21 21 20 21 22 22 21 20 19 17 16 14 13 13 14 17 18 17 17 17 17 15 13 13 11 11 10 9 7 6 4 3 2 2 3 3 4 4 4 4 4 4 4 4 3 3 4 4 5 4 5 5 4 4 4 3 3 2
5 3 1 1 1 1 3 2 3 3 5 5 7 13 15 12 8 7 6 4 3 1 2 7 6 2 4 4 3 7 7 7 8 7 9 9 12 17 19 20 19 18 20 21 21 20 20 19 18 16 15 13 13 14 17 18 19 18 18 19 16 15 13 12 12 11 10 9 8 6 4 2 2 2 3 3 4 4 4 4 4 4 3 3 3 3 3 3 3 4 4 3 3 3 3 2 2
3 1 3 2 1 2 4 3 3 4 5 5 9 15 16 12 9 6 6 3 4 3 2 6 4 4 5 3 5 7 8 9 8 8 9 11 12 15 17 18 18 16 17 18 20 21 20 19 18 17 16 13 12 14 17 18 19 18 18 19 18 16 15 13 13 12 12 11 10 8 5 4 2 2 2 3 3 4 4 4 4 4 4 4 3 2 2 2 2 2 2 2 2 2 1 1 1
4 1 3 2 2 3 4 3 4 5 5 4 6 9 9 7 9 6 8 5 4 4 6 7 3 5 3 2 6 7 9 9 8 9 10 12 13 14 16 17 17 16 15 16 18 20 20 20 19 19 17 14 13 13 16 17 17 18 18 20 19 17 16 15 14 13 13 13 12 10 8 5 4 2 1 2 3 4 5 5 5 5 5 4 4 3 3 3 2 2 2 1 1 1 0 0 1
6 3 4 2 3 3 3 2 3 3 5 4 4 5 2 7 9 9 11 7 3 2 7 10 5 4 3 3 5 8 9 10 10 10 11 12 13 15 16 16 16 16 15 14 16 17 19 20 20 20 18 16 14 13 16 17 16 17 18 20 21 19 17 16 15 14 14 14 13 12 10 7 5 4 3 3 3 4 5 6 6 6 6 6 5 5 5 4 3 3 2 2 2 2 2 2 2
9 6 6 2 2 2 3 2 2 2 4 5 3 3 4 6 5 8 11 6 7 7 3 8 9 4 4 3 5 9 10 10 11 12 12 12 13 15 16 15 16 16 15 14 15 16 18 20 20 20 19 17 16 14 15 17 16 17 17 19 20 20 19 17 16 15 15 15 14 13 11 9 7 6 5 4 4 5 6 7 7 7 7 7 6 6 6 5 5 4 3 3 3 3 3 3 3
13 8 5 2 1 1 3 3 2 3 4 5 4 3 6 6 4 8 10 6 8 10 3 5 10 4 3 4 4 7 10 11 12 13 12 13 13 15 16 16 16 16 16 15 15 17 18 20 21 21 20 19 18 16 15 17 17 17 18 18 19 20 20 19 18 17 15 15 14 13 13 11 10 8 7 7 6 7 7 7 8 8 8 7 7 7 7 7 7 6 5 5 4 4 4 4 4
15 8 4 2 3 3 4 3 2 2 4 4 4 4 3 5 5 6 8 8 6 10 8 6 11 7 3 5 4 4 8 12 13 13 13 14 15 16 17 17 17 17 16 16 16 16 18 20 21 21 21 20 19 17 16 17 18 17 18 19 19 20 21 21 20 18 17 15 14 14 14 13 12 11 9 9 8 8 8 7 8 8 9 8 8 8 8 8 8 7 7 6 6 6 5 5 5
13 7 2 3 4 4 5 4 4 3 3 3 4 5 1 2 2 4 4 8 7 8 10 7 11 13 8 6 6 4 7 12 14 15 15 15 17 18 19 20 19 19 18 17 16 15 17 20 22 22 22 21 20 18 18 18 18 18 19 20 21 21 22 22 21 20 19 17 16 15 15 15 14 13 12 11 10 10 9 8 8 9 9 9 9 9 9 9 9 8 8 7 7 7 7 7 7
10 4 3 5 4 5 6 7 6 3 2 2 3 6 3 3 2 2 1 6 8 7 10 10 11 14 13 9 8 6 7 12 15 16 17 17 19 20 22 22 22 21 20 19 18 17 17 19 21 22 22 21 21 19 19 19 19 19 19 20 21 21 22 22 22 22 21 19 18 17 16 16 15 15 14 13 12 11 10 10 10 10 10 10 10 10 10 10 10 9 9 8 8 8 8 8 8
7 2 3 7 5 6 7 8 7 4 3 1 1 5 5 4 4 1 1 1 4 5 7 10 11 13 14 12 9 8 8 12 15 16 17 18 19 20 21 23 23 23 22 22 21 19 18 19 20 21 21 22 22 20 20 20 20 19 19 20 21 21 22 23 23 22 22 21 20 18 18 16 16 16 15 14 14 13 12 12 12 11 11 11 10 11 11 11 10 10 10 9 9 9 9 9 9
4 2 4 6 4 4 8 10 9 8 5 1 2 4 5 4 5 2 1 2 1 5 8 9 12 15 16 14 11 10 10 12 15 17 18 18 18 18 19 21 21 22 22 22 22 21 19 19 20 20 20 21 22 22 21 20 20 19 19 19 20 21 22 23 23 23 23 23 21 20 19 18 17 16 16 15 15 15 14 14 13 12 12 11 11 11 11 11 11 11 11 10 10 10 10 10 11
2 4 3 4 5 4 7 12 12 10 5 4 4 6 5 3 5 2 1 1 2 8 11 11 15 16 15 15 13 12 13 14 15 17 18 19 19 18 18 18 18 18 19 22 22 22 21 20 20 20 21 21 23 23 22 21 20 19 19 19 20 19 20 22 22 22 23 23 22 21 20 19 18 17 16 16 16 16 15 15 14 13 12 11 11 11 11 11 12 12 12 11 11 11 11 12 12
2 3 2 4 6 3 3 7 12 11 8 7 6 6 4 3 3 1 1 2 5 6 8 10 14 16 14 14 14 14 15 15 17 17 19 19 20 19 19 19 18 19 20 21 21 21 21 20 19 19 21 23 23 23 22 22 21 20 19 19 20 19 18 19 20 20 22 22 22 22 20 19 19 18 17 16 16 16 15 14 13 12 11 11 11 11 11 12 13 13 12 12 12 12 13 13 13
3 3 3 4 3 2 2 1 4 7 6 6 5 5 4 2 4 5 4 7 8 7 9 10 10 12 14 14 14 15 15 16 17 17 17 18 18 18 18 18 19 20 20 19 19 20 21 20 19 19 21 23 24 23 23 23 22 20 19 20 20 19 18 17 18 19 20 21 21 21 21 20 20 19 18 17 16 16 15 14 13 12 12 11 11 11 12 12 13 13 13 14 14 14 14 14 14
1 2 4 6 5 3 4 5 2 2 4 5 4 4 4 2 4 5 6 11 11 10 10 9 9 9 10 14 15 16 15 16 16 16 17 17 17 16 17 18 19 20 20 20 19 20 20 20 20 19 20 23 24 24 24 24 23 21 20 20 20 19 18 17 17 17 19 20 20 21 21 21 20 19 18 17 16 16 15 14 14 14 13 12 12 12 12 13 13 14 15 15 15 15 15 15 14
3 2 7 8 7 6 7 6 3 2 4 6 5 5 7 6 4 4 11 18 15 12 13 11 11 11 10 12 15 16 16 16 17 18 19 19 19 19 20 21 21 22 22 20 20 20 20 20 20 20 20 21 23 24 24 24 23 23 21 20 20 19 19 17 16 17 17 18 18 19 20 20 19 19 18 18 18 17 16 16 16 15 14 14 14 14 14 14 14 15 15 15 15 15 15 14 14
3 4 9 9 9 9 6 3 2 3 3 5 4 5 7 6 4 5 14 17 13 11 10 9 9 9 9 10 13 16 16 16 17 19 20 21 22 23 23 23 23 23 22 21 21 21 20 20 21 20 20 21 22 24 25 25 24 23 22 20 20 19 19 18 17 17 17 17 18 18 19 19 19 19 18 18 18 18 17 17 17 16 16 15 16 16 15 16 16 16 16 15 15 15 15 15 15
6 7 9 8 9 8 3 2 5 5 3 3 4 6 6 3 2 4 8 5 4 4 4 6 8 7 6 6 10 13 15 15 17 19 20 22 23 24 24 24 25 24 23 23 23 22 21 22 22 21 21 21 22 24 25 25 24 23 22 21 20 19 19 18 18 18 18 18 18 18 19 19 19 19 18 18 19 18 18 18 18 17 17 17 17 17 16 16 16 16 16 16 16 16 16 16 16
7 6 7 7 8 6 1 1 2 1 2 3 3 5 4 1 3 7 11 7 7 9 10 11 10 9 7 6 7 10 13 14 17 19 19 21 22 23 24 24 24 24 24 23 23 23 23 23 22 22 22 22 23 24 25 25 24 23 23 22 21 20 19 19 19 19 19 19 19 19 19 19 19 19 19 19 19 19 19 19 19 19 18 17 17 17 16 17 17 17 17 17 17 17 17 18 18
5 3 3 6 7 4 3 2 1 1 1 1 2 3 4 2 4 8 14 13 13 15 17 16 14 13 11 9 9 10 11 12 16 17 16 18 21 23 24 24 24 25 24 24 24 24 23 23 23 23 23 23 24 24 25 26 25 24 24 22 21 21 21 21 21 20 19 20 20 20 21 21 21 21 21 21 20 20 20 20 20 19 18 18 18 18 17 18 18 19 19 19 19 19 20 19 20
2 2 2 4 6 3 5 4 1 1 2 3 4 2 4 4 6 7 11 12 12 13 15 17 16 15 14 13 13 13 13 14 16 17 16 18 20 23 24 24 25 26 25 25 26 25 24 24 24 24 25 25 24 24 25 26 26 26 25 24 22 22 22 22 21 21 20 20 20 21 22 23 23 23 23 23 22 22 21 21 20 19 19 19 19 19 19 19 19 20 20 21 21 21 22 21 22
1 1 2 3 2 3 6 6 4 2 2 2 5 3 4 5 7 5 8 11 10 10 12 15 16 15 15 15 16 17 17 17 19 19 18 19 21 23 24 24 25 26 27 27 27 26 25 25 25 26 26 26 26 26 26 26 26 26 26 25 24 24 23 23 22 21 21 20 21 21 22 22 23 23 23 23 23 23 22 22 21 20 20 20 21 20 21 21 21 21 22 23 23 23 24 23 24
3 2 2 3 1 4 6 7 6 4 2 1 4 4 5 5 7 9 12 14 13 11 13 15 16 16 16 16 16 18 19 19 20 20 19 20 22 24 24 25 26 26 27 27 27 27 27 26 26 27 27 27 27 27 26 26 27 27 27 26 25 25 25 24 24 23 22 22 22 22 22 22 22 22 22 23 23 23 23 22 21 20 21 22 22 22 22 23 23 23 24 24 25 25 25 25 25
3 3 1 2 2 2 4 4 8 9 5 5 4 1 3 4 11 18 17 16 16 14 15 18 18 19 18 18 18 18 20 21 22 22 21 20 21 22 24 25 26 27 28 28 28 29 29 28 28 28 27 28 28 28 28 27 27 27 28 27 27 27 27 26 25 25 25 24 25 24 23 23 22 23 23 23 24 23 23 23 22 21 22 23 23 24 24 24 24 25 25 26 26 27 27 26 26
3 3 3 1 1 1 1 2 8 12 6 5 6 2 3 6 14 24 21 17 16 14 16 19 20 21 21 21 20 20 20 21 22 21 19 18 18 19 21 22 24 26 27 29 30 30 30 30 30 30 29 28 29 29 29 29 29 29 29 29 29 29 28 28 27 27 27 27 27 26 25 24 24 24 24 24 25 25 25 24 24 23 24 25 25 26 26 26 26 27 27 26 26 27 27 27 26
1 3 3 2 3 1 2 3 5 10 7 5 7 3 4 7 12 21 25 22 16 12 15 18 19 21 21 22 21 20 20 20 21 19 17 16 16 17 18 18 19 21 24 27 29 31 32 32 32 32 31 31 30 30 30 30 31 31 31 31 31 31 30 29 29 29 29 28 29 28 26 26 26 25 25 25 26 26 26 26 26 25 26 26 27 28 28 28 27 27 27 26 26 27 28 27 27
4 4 3 2 1 2 4 4 3 6 6 5 4 3 5 7 9 14 23 24 20 16 16 18 19 20 20 21 21 21 20 19 18 17 17 16 16 16 18 19 19 19 20 22 25 29 31 32 33 33 32 31 31 32 32 33 33 33 33 33 33 33 32 31 30 30 30 30 30 29 28 28 27 27 27 26 27 28 28 28 28 28 27 27 28 29 29 28 27 26 27 27 26 27 28 28 27
4 4 3 2 1 2 4 5 4 4 3 3 4 4 4 5 7 11 19 20 17 17 16 17 20 21 21 21 21 20 19 18 16 15 16 16 16 17 19 21 22 22 21 21 21 23 26 29 32 33 32 31 31 33 34 34 34 34 34 34 34 33 32 31 32 32 32 31 31 31 30 29 28 28 28 28 29 30 30 31 31 29 28 28 29 29 29 28 27 27 27 27 28 28 29 28 26
4 3 3 3 2 3 4 4 5 5 4 4 6 7 6 6 6 10 15 12 10 13 14 15 18 19 20 20 21 22 22 20 18 17 16 17 18 19 21 23 23 23 23 22 22 22 22 24 27 31 32 31 31 32 34 35 36 35 34 33 32 31 31 32 32 32 32 32 32 32 31 30 30 30 30 31 31 32 32 32 31 30 28 28 29 29 28 28 28 27 27 28 28 28 29 28 26
4 3 3 2 2 3 5 4 5 5 3 4 7 6 7 8 6 8 9 7 7 12 12 11 13 15 18 20 22 25 26 26 26 25 25 25 25 25 25 25 24 24 23 23 23 23 23 23 24 26 30 32 31 31 32 34 36 35 34 33 32 32 32 31 32 32 32 33 34 33 33 33 32 33 33 33 33 32 31 31 31 30 29 29 30 29 29 29 28 27 27 27 27 27 28 28 26
4 3 4 0 3 2 2 4 6 5 1 3 6 4 5 6 6 6 6 8 9 12 14 13 13 14 18 21 23 25 27 30 32 33 33 33 33 31 29 27 26 25 24 23 23 23 24 24 24 24 26 30 32 32 31 31 33 34 35 34 33 33 33 33 33 33 33 34 35 34 34 34 34 34 34 33 32 31 30 30 30 30 30 30 30 30 30 29 28 27 26 26 27 28 29 28 27
3 3 4 1 4 1 3 4 6 5 2 2 4 4 3 5 7 6 7 10 10 13 17 19 20 20 22 26 29 29 29 31 34 37 38 37 36 34 32 30 28 25 24 23 22 23 25 24 24 24 24 26 29 31 31 31 32 33 34 35 35 36 36 36 36 36 35 35 34 33 33 32 32 32 31 30 29 29 28 29 29 29 30 30 30 30 30 30 29 28 28 27 28 29 30 29 28
3 1 1 3 4 3 5 5 4 4 4 4 5 4 4 5 7 6 6 8 9 11 14 18 24 27 29 31 32 34 34 35 35 36 38 37 35 33 30 29 27 26 24 22 22 24 25 24 23 23 24 24 25 28 30 32 33 33 34 35 37 37 37 37 37 35 34 33 32 31 29 28 28 28 28 28 27 27 27 27 28 28 29 29 30 30 30 30 30 29 28 28 29 29 29 29 30
2 1 2 3 2 2 4 3 3 2 2 4 4 4 3 5 6 6 5 7 8 9 11 16 25 30 32 33 33 35 36 37 38 38 40 40 37 34 31 28 26 25 24 22 22 23 23 23 22 22 23 23 24 25 28 32 33 33 34 35 36 37 37 36 35 34 34 33 31 30 29 28 28 28 27 27 27 27 28 28 28 28 29 30 31 31 31 30 30 29 28 29 29 29 29 30 30
1 2 1 1 1 2 1 2 3 1 1 4 5 3 1 3 4 6 6 6 7 11 12 16 24 30 33 34 35 35 35 35 38 41 44 44 43 41 36 30 26 24 23 22 23 22 22 21 21 21 21 22 22 24 26 29 31 33 33 34 35 36 37 36 35 34 34 33 32 31 31 30 29 29 29 29 29 29 29 28 29 29 30 30 31 32 31 29 29 29 29 29 29 29 29 30 29
1 3 1 1 1 1 2 4 2 1 2 4 6 3 2 2 5 6 5 5 8 12 11 12 20 28 31 33 35 36 37 38 39 41 43 44 45 44 42 35 28 24 21 21 21 21 20 20 20 20 20 20 21 23 26 28 29 31 33 34 35 35 36 35 34 35 35 35 34 33 32 31 30 30 29 29 30 30 30 30 30 30 30 30 31 31 30 30 30 30 30 30 30 30 29 29 29
4 3 2 2 4 3 3 4 1 3 4 2 5 4 2 3 5 5 4 6 7 9 8 9 17 25 29 32 36 37 40 41 41 42 43 43 43 44 43 38 31 26 22 18 18 18 19 19 19 19 18 18 20 22 25 28 29 30 32 33 34 34 34 34 34 35 35 35 35 34 32 31 29 27 26 28 29 29 29 30 29 29 29 29 29 29 29 29 30 30 31 30 30 30 30 30 29
4 4 4 3 5 4 3 3 3 5 3 3 4 4 2 1 4 3 0 3 5 6 7 10 16 24 30 33 35 37 39 40 41 43 43 43 41 40 41 38 34 30 24 19 17 17 18 16 16 17 16 17 19 21 24 26 28 30 31 32 32 33 33 34 35 34 33 32 33 31 29 29 28 26 26 28 29 28 27 27 28 29 29 30 30 30 30 30 30 30 31 31 31 31 31 31 29
3 3 4 3 4 4 4 4 4 4 2 5 4 3 2 2 3 4 3 2 6 6 6 8 12 21 29 33 35 36 38 39 41 43 44 44 42 41 40 40 38 34 30 26 21 20 19 16 14 14 13 15 17 19 22 24 26 28 29 29 30 29 30 32 34 33 31 31 31 29 29 29 29 29 29 30 30 28 27 28 28 29 31 32 33 34 34 34 33 33 33 34 34 33 32 33 32
5 3 4 4 2 4 3 4 2 1 3 4 5 4 2 2 5 5 5 6 7 6 7 8 11 21 29 32 34 36 37 39 42 43 44 44 44 43 42 41 40 38 36 34 29 26 23 21 17 14 13 14 15 17 19 21 22 24 24 25 25 25 26 28 30 29 28 29 30 30 30 30 30 31 32 31 30 29 30 30 29 28 29 29 30 31 31 32 33 34 34 35 36 35 33 33 33
5 3 3 3 3 3 1 2 2 1 4 5 4 4 1 3 3 2 2 4 6 9 13 13 16 24 28 30 33 38 41 42 44 44 45 45 45 45 44 43 41 39 39 37 35 33 30 27 24 20 17 16 16 17 18 18 19 20 21 22 23 23 23 24 26 27 27 27 29 30 31 32 32 33 32 31 30 30 30 30 29 29 29 28 29 29 30 30 31 32 33 32 33 33 32 32 32
3 1 4 3 3 3 2 2 1 2 3 5 4 3 1 2 0 2 2 2 7 14 20 23 27 31 32 33 37 41 44 45 45 46 46 45 45 46 45 43 41 39 38 38 37 38 36 33 30 26 23 20 18 17 17 18 18 19 20 20 21 21 22 22 23 24 24 25 27 29 30 31 31 31 30 30 29 29 30 30 30 31 30 29 30 30 31 31 31 31 32 32 31 30 30 31 31
2 1 3 2 1 2 2 2 3 1 1 3 2 0 3 2 1 2 5 9 15 21 26 30 32 35 36 37 39 41 42 44 46 46 46 46 46 45 45 44 42 39 37 37 37 37 38 37 34 31 28 24 21 19 18 18 17 17 19 19 19 20 21 22 22 22 23 24 25 27 28 29 29 30 30 29 29 30 31 32 32 33 32 32 32 31 31 31 31 32 32 32 31 29 29 29 29
1 3 2 1 1 2 2 1 1 3 2 2 1 1 4 3 2 4 9 13 18 22 25 28 29 33 35 35 37 39 40 42 43 44 45 46 46 46 45 45 43 40 37 36 35 35 36 37 35 34 32 29 25 22 20 19 19 18 18 19 20 21 22 23 24 24 25 25 26 28 28 29 30 30 30 31 31 32 33 33 34 35 34 34 33 33 32 32 32 32 32 31 30 29 27 27 26
2 3 2 2 1 2 3 2 2 4 1 3 2 1 4 4 2 6 12 16 18 19 22 27 31 35 35 34 36 39 40 42 42 44 46 47 47 47 45 44 42 39 36 34 33 33 33 34 35 34 33 31 30 28 25 23 22 22 21 21 21 21 23 24 25 26 27 28 29 29 30 31 31 31 32 32 33 34 35 35 35 36 36 35 35 34 33 32 32 32 32 31 29 27 26 25 24
5 1 1 1 3 2 2 2 2 2 0 3 4 2 2 1 1 6 12 14 15 17 20 23 26 29 31 34 38 41 42 43 44 45 46 46 47 47 45 44 42 39 36 33 32 31 30 31 32 32 32 31 30 29 29 28 26 25 24 24 25 24 25 26 27 28 29 31 32 32 33 33 33 34 34 35 35 36 36 36 36 37 36 36 36 35 34 33 32 32 31 30 29 27 25 24 24
5 3 3 2 2 1 1 1 1 1 1 2 3 3 2 3 2 6 11 10 11 14 15 16 22 27 28 31 36 39 41 41 42 43 44 45 47 46 46 45 44 42 40 38 36 34 32 32 31 30 31 31 30 29 29 29 29 28 26 25 26 27 27 28 29 29 31 32 33 34 35 36 36 37 37 37 38 38 37 37 36 36 36 35 34 33 33 31 31 31 31 30 28 26 25 24 23
5 5 5 5 3 2 2 1 1 3 2 0 1 3 4 5 0 7 10 9 10 12 11 13 23 30 30 29 32 36 38 39 41 43 44 46 47 47 46 46 45 44 43 42 41 39 37 35 33 31 30 30 30 30 30 30 29 29 28 27 26 27 27 29 30 30 32 33 33 34 35 36 37 38 38 38 39 38 37 36 35 35 34 33 32 30 30 29 29 30 29 29 27 25 24 23 22
4 4 3 3 3 3 4 2 3 2 2 2 2 2 6 4 3 7 8 9 12 15 13 14 23 30 32 32 31 32 35 38 40 43 44 47 48 48 48 48 48 47 46 45 44 43 41 39 37 34 31 30 29 29 29 29 29 28 28 28 27 27 27 27 28 29 30 31 32 33 35 36 37 37 37 38 39 39 38 37 36 34 33 31 30 28 27 27 28 28 27 26 25 23 23 22 22
Wind_Direction
321 325 333 335 333 334 336 122 129 348 82 279 275 220 260 246 258 284 273 273 253 232 189 180 156 153 154 193 196 198 173 169 174 150 201 248 179 175 180 182 184 188 187 182 181 183 186 186 187 189 194 199 195 181 179 177 170 166 157 152 146 142 138 129 124 121 126 140 153 153 151 155 164 175 172 177 183 185 187 199 216 221 222 219 216 208 197 202 212 203 172 161 167 163 175 179 164
320 324 336 336 334 331 212 124 84 333 49 315 276 189 256 307 316 254 238 214 213 251 149 158 152 158 164 160 169 165 182 193 197 199 253 240 185 177 175 179 183 188 188 184 182 183 185 184 186 188 192 197 189 177 179 177 172 169 161 157 152 149 145 139 134 129 128 135 153 162 161 163 173 185 183 191 198 205 208 202 217 232 234 230 224 216 205 206 219 220 209 157 147 147 154 162 147
321 325 337 340 343 65 152 87 80 98 79 264 270 240 255 318 247 251 239 222 193 99 121 138 137 147 143 110 140 150 195 207 211 223 267 230 189 177 172 178 181 188 188 185 183 182 183 183 186 188 192 195 185 177 179 177 175 172 167 162 159 156 153 149 142 137 134 135 149 167 175 179 184 189 194 197 204 214 217 212 216 235 246 227 185 187 193 198 211 208 198 152 133 142 138 143 144
321 328 337 344 359 106 90 60 141 129 170 226 269 266 233 234 245 269 267 251 195 134 126 126 125 121 141 85 155 178 222 206 208 226 261 219 190 177 172 176 179 184 188 187 184 181 182 183 187 189 194 192 183 180 179 180 178 175 174 168 168 165 162 158 152 146 139 137 142 158 175 191 199 205 212 210 210 205 196 207 215 228 239 180 136 151 169 182 194 168 156 143 132 133 139 147 149
316 329 335 338 345 138 93 69 119 132 208 190 221 263 228 220 251 278 291 275 183 166 159 114 109 106 126 147 156 201 264 194 186 229 252 193 184 179 174 175 178 182 187 189 185 181 183 186 188 191 196 191 185 181 180 185 182 180 178 173 178 177 173 167 162 157 147 144 141 145 156 176 200 217 229 224 212 194 181 178 167 187 184 142 135 144 154 163 170 152 134 124 116 106 107 128 141
310 328 336 338 13 147 119 168 178 205 227 170 191 258 244 227 244 270 307 57 174 191 242 237 192 142 110 120 199 223 169 175 173 129 182 181 181 178 175 175 177 181 187 190 186 183 185 189 190 193 197 191 186 183 184 191 187 185 182 179 185 186 183 177 171 167 162 158 146 144 148 157 172 204 223 217 201 187 188 158 120 136 143 142 139 140 146 148 147 138 129 117 106 98 85 82 95
308 327 338 348 70 86 124 189 206 231 241 179 192 251 254 243 234 265 328 119 183 236 244 234 183 146 86 180 275 206 170 168 154 132 154 180 182 176 176 175 177 182 188 191 189 185 187 191 192 195 199 195 191 187 186 189 191 193 189 184 189 193 192 188 183 176 178 179 159 148 148 154 154 168 200 201 191 179 173 148 137 139 142 147 143 140 137 131 127 122 121 120 114 107 100 87 85
306 323 340 24 63 15 118 200 230 215 241 218 222 245 254 275 272 220 211 171 215 255 222 211 174 154 256 198 227 194 183 171 150 147 155 173 178 176 178 176 177 184 190 193 191 189 190 194 196 198 199 201 200 194 189 188 190 196 195 191 193 198 200 198 194 187 190 196 181 161 155 158 155 160 181 191 189 175 169 155 151 149 153 156 148 145 136 126 123 122 120 119 116 110 106 98 87
300 308 321 92 183 339 57 265 258 225 252 258 252 251 259 277 271 219 205 228 264 274 223 196 173 183 220 183 205 192 190 177 159 160 157 163 176 177 181 178 180 187 191 195 194 192 194 197 199 200 202 205 208 202 195 191 192 198 199 196 195 200 205 207 204 199 199 207 203 182 168 171 167 172 185 195 196 188 182 172 165 164 164 165 166 157 140 134 131 130 128 123 116 109 103 95 91
284 287 188 98 145 269 293 264 249 250 247 255 263 263 268 266 247 211 195 223 239 264 220 187 188 214 180 177 201 193 198 186 169 170 163 165 179 182 184 182 185 191 194 195 196 196 198 201 201 203 208 210 214 211 201 196 199 202 199 197 197 201 207 211 212 209 206 213 214 201 189 193 197 190 201 208 210 212 203 195 187 181 185 190 188 171 151 148 147 139 134 129 120 109 101 91 89
241 171 146 116 131 218 253 248 247 260 263 290 283 273 277 259 228 201 191 223 232 233 195 173 208 193 157 206 209 200 203 192 180 175 169 171 183 188 188 187 188 194 197 195 197 200 202 204 205 208 213 217 221 214 205 203 206 205 200 198 199 202 207 212 216 216 213 218 220 213 208 210 225 221 226 236 234 232 222 215 211 204 208 210 208 199 186 185 173 158 150 137 120 111 103 95 70
211 144 112 138 184 208 220 239 257 273 293 305 282 288 294 228 191 187 193 206 209 231 223 188 207 186 152 282 217 208 202 194 183 177 179 177 185 193 194 194 191 191 193 196 199 203 206 206 208 212 216 221 225 216 207 208 209 207 204 201 201 203 207 212 218 220 218 221 223 222 221 224 241 261 284 276 258 247 238 227 222 221 223 222 222 225 225 223 216 205 184 160 150 174 251 291 307
207 149 112 152 192 185 180 222 272 296 310 263 250 305 305 180 187 202 185 182 182 195 234 210 209 197 194 278 219 211 200 197 188 176 182 181 187 195 198 200 196 192 189 196 203 207 211 210 210 214 219 222 224 217 209 211 211 210 209 206 205 205 206 212 218 220 223 223 224 226 228 234 248 267 288 297 282 260 248 238 230 225 226 229 230 232 238 239 237 231 217 210 208 227 253 269 292
206 173 144 187 184 147 166 218 271 260 284 258 274 308 199 186 226 218 173 167 213 196 229 219 208 209 226 252 236 223 204 199 194 182 179 185 193 195 200 202 199 196 192 199 207 213 215 214 214 216 221 224 225 217 210 214 215 213 212 212 211 210 210 212 217 220 225 225 225 228 230 236 247 259 275 282 283 270 257 247 240 235 232 232 234 237 242 246 248 246 240 235 229 235 248 257 275
201 180 138 137 155 180 199 217 213 189 250 249 324 328 199 217 252 215 186 187 223 213 217 208 196 204 236 214 246 240 212 202 197 190 183 187 195 194 199 200 199 198 197 203 209 215 217 218 218 219 223 226 226 220 213 216 219 219 216 217 217 216 216 214 216 220 225 226 227 230 230 235 242 247 257 265 272 273 267 258 251 245 242 239 238 240 244 249 252 253 251 251 252 253 258 263 271
194 178 102 154 193 208 203 201 177 171 247 234 341 356 203 245 229 202 212 213 226 217 211 199 196 207 237 220 260 259 209 205 200 197 189 189 195 193 197 199 200 202 203 208 209 214 217 218 220 222 225 227 226 222 218 217 219 223 221 222 222 220 221 220 218 219 223 228 229 229 229 233 239 242 246 255 263 272 274 270 263 255 250 247 245 245 246 249 251 253 254 257 261 266 273 278 283
189 178 124 191 201 197 190 186 184 185 235 236 12 30 120 297 228 195 227 215 213 213 211 211 208 218 236 245 263 255 207 205 203 201 195 194 196 193 196 199 201 204 208 211 212 215 216 219 221 224 227 228 225 222 221 220 220 222 223 226 226 225 225 225 224 222 223 226 229 229 227 229 237 242 245 252 259 268 277 277 272 263 256 252 250 250 251 252 253 253 255 258 262 267 272 276 279
182 171 176 200 194 187 182 180 192 176 169 220 27 47 58 3 337 229 203 203 205 212 219 221 221 226 235 247 254 245 213 207 208 206 203 200 200 199 199 201 204 207 209 211 213 216 218 219 221 224 228 229 227 223 222 223 224 224 224 227 229 229 227 228 228 226 225 224 227 229 228 228 235 242 246 252 260 267 273 275 272 265 258 254 252 252 253 255 256 256 255 258 261 264 266 269 273
191 137 183 213 192 184 183 178 194 193 173 230 3 37 39 28 12 279 255 259 200 201 225 229 233 232 235 243 244 234 218 214 216 213 213 210 209 210 206 205 207 210 212 212 213 216 219 220 222 225 228 229 227 225 224 224 226 227 229 231 232 232 230 230 229 228 227 225 227 229 231 232 235 240 246 252 257 263 267 268 268 264 258 254 252 252 253 255 256 257 256 257 259 263 267 270 273
219 175 203 227 197 204 202 190 204 210 209 326 332 349 23 41 17 5 240 332 227 214 222 223 231 233 232 236 238 229 219 220 223 220 220 219 218 221 217 213 214 215 217 217 216 217 219 221 223 227 228 229 227 225 225 226 228 230 234 236 238 236 233 230 229 229 228 227 229 231 234 236 239 241 246 251 254 259 262 266 268 265 259 255 255 252 253 256 256 257 257 259 262 266 270 272 274
225 197 211 225 192 220 217 206 220 225 244 292 298 323 347 356 357 16 144 23 286 245 236 236 242 240 231 232 234 227 222 223 226 225 224 222 221 223 226 227 226 225 223 221 222 221 222 224 224 227 228 227 225 224 224 226 229 232 236 240 242 238 232 229 228 228 229 229 230 233 236 238 243 245 247 249 253 258 261 265 267 265 260 255 256 254 253 255 256 258 259 261 264 267 270 271 273
236 224 248 247 204 217 227 214 228 237 260 279 298 317 309 318 330 273 231 248 256 265 275 282 266 254 244 243 241 228 226 227 227 229 228 226 224 225 228 229 228 226 225 225 226 227 227 228 229 229 228 226 224 224 224 227 230 233 236 241 243 239 233 230 228 228 230 231 232 234 237 239 243 248 251 252 253 258 261 264 264 264 262 259 259 257 255 255 257 259 259 262 265 268 271 272 273
255 265 314 303 263 273 311 300 225 232 241 252 273 287 292 331 308 281 255 249 269 295 306 313 298 272 254 249 246 236 234 232 233 237 237 235 233 233 234 232 230 227 228 229 229 231 231 232 233 232 228 225 225 225 225 226 229 232 235 241 244 242 237 234 229 227 230 232 235 237 239 244 247 250 253 255 256 258 260 263 263 264 265 264 264 260 258 256 256 258 261 264 266 269 270 270 270
266 276 351 345 331 343 313 323 329 263 234 237 246 257 284 300 291 296 260 260 281 298 300 304 312 304 269 247 246 247 247 245 245 246 246 247 245 245 244 242 239 235 234 233 232 232 233 233 234 234 229 225 225 226 227 227 229 231 233 238 242 243 241 240 236 232 232 234 236 239 242 246 248 251 253 255 257 258 260 262 263 264 265 266 266 263 260 258 258 260 263 265 266 268 267 267 268
56 293 333 336 331 346 326 316 320 304 264 262 267 252 263 262 265 293 268 268 278 290 295 295 296 301 284 256 248 248 248 248 249 246 243 244 243 243 243 244 243 240 239 238 236 236 236 236 236 236 231 226 226 227 228 229 230 232 233 236 239 243 244 243 241 238 237 238 238 239 243 246 248 250 251 254 256 257 258 260 261 262 263 265 265 264 262 262 262 262 264 265 266 267 266 266 267
23 299 315 318 316 333 335 343 3 338 273 249 262 268 272 262 261 274 268 271 278 282 286 291 295 299 291 264 251 247 248 252 251 246 243 242 242 243 244 246 246 246 246 244 242 241 241 240 239 238 235 231 229 228 229 230 230 232 234 236 238 241 244 244 243 241 239 239 239 240 242 245 248 250 251 253 254 255 256 256 257 259 261 262 263 263 263 264 263 263 264 265 267 266 267 267 266
327 306 306 298 303 321 343 0 330 326 286 233 225 260 271 214 176 260 262 274 280 265 283 302 311 321 316 280 259 251 252 258 255 248 245 245 246 248 248 248 250 251 250 248 246 245 244 244 242 242 240 237 235 232 231 231 232 234 235 237 237 238 240 241 242 242 241 240 240 240 241 243 246 249 250 250 251 252 253 253 255 257 259 260 261 261 262 263 264 264 265 266 267 266 267 268 268
322 321 314 305 318 324 342 356 299 321 296 263 216 258 281 159 145 240 250 261 274 279 291 300 305 312 315 301 279 261 261 263 255 253 254 256 257 256 255 255 255 255 253 253 251 249 247 246 245 245 244 243 240 236 234 233 234 235 237 238 237 237 236 237 239 240 241 241 241 241 242 243 245 247 248 250 251 252 252 254 256 256 258 260 260 261 260 262 263 264 265 266 268 268 269 269 270
315 351 337 320 349 353 355 34 134 81 310 72 95 285 283 205 187 231 255 267 273 279 284 289 291 291 293 291 283 272 275 270 257 262 272 274 271 263 262 262 260 259 259 258 255 253 252 249 248 247 248 247 244 240 238 236 235 236 237 239 238 238 237 236 237 239 240 241 242 243 244 245 246 248 249 251 252 254 254 254 256 256 258 260 260 261 261 260 262 264 266 267 268 269 269 270 270
310 37 81 336 4 352 349 13 29 96 201 154 103 268 262 241 237 236 265 279 279 278 277 282 285 283 284 284 283 281 282 278 273 281 287 286 279 271 269 267 262 263 263 260 258 257 255 253 251 249 248 248 247 245 243 239 236 236 237 238 239 239 239 238 237 238 240 240 240 241 243 245 246 247 248 250 252 253 254 254 255 256 258 261 261 261 261 261 262 264 267 268 268 269 269 270 271
30 42 44 10 52 277 331 2 358 64 198 171 134 224 269 267 269 270 294 308 314 301 285 283 285 286 287 285 286 288 287 286 285 287 287 285 282 276 274 271 266 265 264 263 263 262 259 257 255 253 250 250 249 248 246 242 239 238 238 239 239 240 239 236 235 236 236 236 237 238 239 242 243 245 246 247 249 250 252 253 255 257 259 261 261 261 261 261 262 263 265 267 268 269 270 270 272
24 73 2 349 107 272 326 16 22 29 328 26 135 234 279 259 285 317 324 332 342 335 315 304 299 300 301 299 297 296 297 296 293 292 293 292 288 283 280 277 272 268 268 268 268 266 263 261 259 257 254 251 250 249 248 247 244 242 240 240 240 240 239 236 234 234 235 235 236 236 236 238 240 242 244 245 248 249 251 254 255 258 260 260 261 261 261 261 262 263 264 266 268 269 270 272 273
0 78 117 334 44 303 317 18 27 26 2 4 53 282 304 290 314 327 333 338 340 338 328 320 315 312 311 311 310 310 310 309 306 303 303 303 299 295 291 286 281 274 271 270 269 268 266 265 261 260 258 255 253 251 250 249 247 244 242 241 241 241 241 239 237 236 237 237 237 237 236 237 239 241 243 246 248 250 252 255 256 258 259 260 261 261 261 262 263 264 265 266 268 270 272 274 276
328 25 103 53 26 82 324 311 5 26 43 5 13 34 295 294 316 327 335 342 345 344 332 324 320 315 313 313 313 314 316 319 321 318 313 312 308 305 302 297 292 283 277 272 270 269 269 267 264 262 261 259 257 254 252 251 249 249 247 244 243 243 242 242 241 241 241 240 240 240 238 239 239 240 243 245 249 252 254 256 257 257 259 261 262 262 262 263 263 264 266 267 269 272 274 276 279
38 30 79 45 5 27 351 297 339 16 30 354 355 357 306 306 317 326 332 339 346 350 337 328 325 320 316 314 314 315 317 320 325 327 322 321 320 319 319 317 311 300 289 280 273 270 269 268 266 263 261 259 260 258 256 253 251 250 249 247 246 243 242 242 242 243 243 243 243 243 242 241 241 242 244 246 249 252 254 256 257 257 258 260 262 263 264 263 264 266 268 269 270 272 274 275 278
95 70 92 94 30 292 289 276 295 1 0 335 346 324 302 315 316 317 324 330 336 340 343 341 338 334 329 326 326 326 327 326 325 322 319 324 330 333 335 335 334 327 314 299 286 277 272 269 267 265 261 258 258 258 256 254 252 249 247 246 245 243 242 242 242 243 244 244 245 246 246 246 246 247 248 250 252 254 256 258 258 258 258 260 262 264 264 265 266 267 268 269 270 270 272 274 277
86 80 67 80 83 302 291 283 300 359 4 285 298 313 297 299 292 296 313 323 331 336 344 347 341 339 338 339 342 342 341 339 334 326 320 323 330 335 340 341 341 339 334 325 311 296 285 277 270 267 265 260 257 255 255 255 253 250 247 245 244 244 244 244 243 243 244 245 247 248 249 249 250 251 252 253 254 256 257 258 260 261 262 263 264 265 266 266 266 266 267 268 269 270 272 275 277
67 81 65 38 27 288 276 281 313 4 35 288 309 336 313 295 284 288 307 320 329 336 343 342 338 339 341 346 350 351 352 350 349 345 339 338 339 341 343 345 345 342 340 337 329 320 308 292 278 271 267 264 259 256 256 256 255 253 251 249 248 249 248 248 247 247 248 249 250 251 251 251 252 253 253 253 254 256 259 262 264 265 265 264 264 265 266 267 267 266 267 268 270 272 274 275 276
71 70 79 38 341 295 295 305 327 1 34 300 319 340 310 299 293 283 300 320 329 342 351 348 346 348 350 353 354 355 357 357 357 355 353 351 348 346 345 346 347 344 341 339 335 330 320 308 297 283 272 266 263 260 258 257 257 257 256 255 254 254 254 253 254 254 254 254 254 254 254 254 254 254 255 256 258 260 262 264 266 266 265 265 266 267 267 268 268 268 268 269 271 273 274 274 275
72 73 82 325 306 344 310 315 332 344 36 284 305 319 310 323 330 304 317 342 341 349 359 4 7 1 356 358 357 358 358 358 357 356 354 351 347 344 343 343 344 343 339 337 335 333 326 317 310 301 286 274 267 264 262 261 260 259 258 258 258 257 257 257 257 255 254 254 254 254 254 255 255 257 258 260 261 262 263 263 265 266 267 267 268 269 269 269 270 270 270 270 271 272 272 275 277
36 74 93 290 304 281 244 296 332 344 11 338 340 353 330 349 360 335 333 346 348 357 4 8 10 8 3 1 360 0 1 360 358 356 355 352 348 346 344 342 341 339 338 336 333 332 329 321 314 309 300 288 276 269 266 265 262 260 258 257 256 256 256 255 255 253 252 253 254 255 257 259 260 261 262 263 263 263 263 263 265 267 269 270 270 271 272 272 272 272 271 270 269 270 272 275 277
18 59 144 260 263 246 273 316 1 22 0 339 29 38 303 329 359 336 334 346 344 358 9 7 4 4 3 1 1 2 4 5 4 3 2 358 353 347 343 343 341 337 334 331 328 327 326 320 314 309 305 299 288 277 271 267 264 261 260 258 256 255 255 255 255 255 256 258 260 262 264 264 264 264 264 264 265 265 265 266 267 269 271 272 272 272 272 272 272 272 271 271 269 270 273 274 273
45 193 203 258 213 197 296 339 51 70 301 326 53 104 266 329 344 318 331 338 335 357 8 3 0 1 1 1 3 5 8 11 11 12 11 7 4 357 348 343 341 338 332 325 321 322 321 315 310 306 304 302 298 289 277 271 268 265 263 261 259 258 257 256 257 260 263 265 266 266 266 266 266 266 267 268 269 269 270 271 271 272 272 272 273 273 272 272 273 273 272 271 271 271 271 271 272
94 227 186 333 66 82 347 78 93 186 244 345 18 99 143 333 302 294 328 346 353 4 1 356 358 359 1 4 7 11 14 13 11 10 11 11 11 8 1 351 343 339 333 323 317 317 318 312 305 300 298 299 300 296 286 276 272 269 267 266 264 263 262 260 261 264 266 266 267 267 267 268 268 270 271 272 273 274 274 274 275 275 275 274 273 272 273 273 274 274 273 272 272 272 272 272 274
246 281 305 332 41 94 87 92 112 314 54 355 339 36 84 300 289 306 347 28 16 360 351 348 354 358 3 6 9 12 13 10 8 8 9 11 12 12 11 5 354 345 338 329 321 318 316 310 302 294 291 293 295 296 292 284 278 273 270 268 268 268 268 267 267 267 266 267 268 268 269 270 272 275 277 277 277 276 275 275 276 277 277 277 275 273 273 273 272 272 273 274 274 274 274 273 273
277 320 358 44 52 51 64 73 88 40 53 324 321 15 67 287 294 319 9 44 16 346 340 346 354 1 5 6 7 8 8 8 7 7 8 10 11 11 14 13 7 358 349 339 332 328 321 309 300 291 286 288 290 291 292 289 284 277 272 270 270 271 272 272 270 268 267 268 269 270 272 274 276 278 281 282 282 281 281 281 282 282 281 280 279 278 277 276 276 275 275 275 274 273 272 272 273
293 8 17 29 30 27 41 33 60 55 12 274 318 4 67 340 289 283 25 68 27 347 342 348 355 3 5 6 6 6 6 5 4 5 6 8 9 11 14 15 13 9 2 353 348 345 336 318 298 290 288 289 289 290 292 291 287 280 275 273 273 274 275 274 273 272 271 271 271 273 275 276 277 278 280 282 284 284 284 284 284 282 281 280 280 280 279 279 281 282 281 279 275 272 271 272 272
31 57 41 39 6 8 25 359 36 67 286 266 313 338 89 99 265 263 265 37 31 8 350 343 349 1 4 5 5 4 3 3 2 3 3 5 6 8 11 12 13 14 10 3 359 355 350 337 313 295 294 299 298 296 295 294 292 287 282 280 278 278 277 275 275 275 275 274 274 275 275 275 278 281 282 282 284 283 282 281 280 277 275 274 274 274 274 274 273 274 273 272 271 270 271 272 270
38 51 53 64 20 8 19 347 15 91 253 268 318 348 89 198 251 272 315 359 8 0 1 358 360 6 5 4 3 1 1 2 1 1 1 1 2 2 3 5 8 12 12 8 4 0 355 349 337 321 314 312 306 301 299 297 295 292 290 287 285 284 280 278 278 278 278 277 276 276 275 276 279 281 282 282 283 283 283 283 282 279 275 273 272 271 271 270 269 268 268 267 267 269 272 274 274
15 44 76 98 95 60 350 315 0 302 272 282 318 14 38 281 277 255 305 351 354 4 16 22 20 12 5 1 1 1 1 0 359 358 358 358 358 359 359 0 2 6 10 10 8 6 3 358 350 340 333 326 314 304 299 296 295 294 292 290 288 285 281 279 278 279 279 278 277 277 277 278 278 279 280 281 282 282 281 280 279 278 277 276 275 274 272 271 271 271 271 270 269 270 272 274 275
343 138 106 111 131 120 187 214 142 239 276 299 335 39 154 250 101 148 154 2 10 20 23 22 16 8 3 1 2 1 359 357 356 355 355 356 357 358 358 359 359 0 4 7 7 7 7 5 1 354 345 337 328 319 308 299 294 292 290 287 286 284 281 279 277 276 276 275 275 275 275 276 277 278 278 278 278 277 276 276 276 276 276 276 275 275 275 273 273 272 273 273 271 269 270 270 271
324 110 82 57 148 147 149 154 170 191 307 305 327 73 220 223 47 34 28 11 11 19 20 16 9 3 2 2 -0 359 356 354 354 354 354 355 357 358 358 359 359 357 359 3 4 4 4 4 6 5 0 350 338 328 319 311 303 296 291 288 286 284 281 280 279 278 278 276 275 274 274 274 275 276 276 275 275 273 273 273 273 274 275 275 275 275 275 274 274 273 272 272 271 269 268 267 267
316 44 37 306 217 142 105 58 357 48 60 286 324 299 296 333 358 353 16 13 9 12 12 10 5 1 2 -0 357 355 353 353 353 353 353 354 356 357 358 359 0 359 358 358 0 0 360 359 0 3 5 2 354 339 325 314 306 299 295 292 290 287 285 284 282 281 280 277 275 273 272 272 272 272 271 271 271 269 269 270 271 272 273 275 276 276 276 275 273 272 270 269 269 269 267 265 262
73 47 343 312 39 95 95 81 14 41 82 283 328 288 314 352 344 340 9 16 9 4 1 0 0 360 358 354 353 353 352 352 352 354 355 355 356 357 357 358 359 0 359 357 357 357 356 355 355 355 356 357 357 353 344 332 316 303 294 288 285 282 281 280 279 278 276 273 271 270 270 269 268 268 268 267 267 267 267 267 269 270 272 274 275 275 275 274 273 271 270 268 266 265 263 260 257
71 103 310 62 82 47 37 85 47 36 94 307 323 311 321 322 260 352 11 19 12 3 357 355 354 355 353 350 351 352 353 355 356 357 358 358 358 358 359 358 357 358 358 356 354 351 349 349 350 350 349 348 347 348 348 347 339 324 308 296 288 282 277 275 273 273 272 271 271 270 270 270 269 269 269 269 270 270 270 271 272 273 274 275 275 274 273 272 272 271 269 266 264 261 257 253 250
25 38 19 47 111 119 18 109 105 91 130 316 333 346 317 236 222 22 22 23 18 7 357 347 343 346 351 352 352 353 355 358 359 360 0 1 1 360 359 360 358 357 356 355 352 349 346 346 346 346 346 345 343 341 340 342 345 341 330 316 304 295 287 282 278 275 273 271 271 271 271 271 272 271 271 272 271 272 273 274 275 277 278 277 275 272 269 268 268 268 266 263 259 256 252 249 246
13 28 21 6 356 28 35 21 80 90 102 130 350 329 285 252 169 47 34 25 17 6 353 340 338 342 347 353 356 356 357 359 1 1 2 2 1 -0 358 358 357 355 354 353 351 349 345 344 344 343 343 343 342 340 337 336 339 341 339 332 321 311 302 295 290 285 281 278 276 274 273 272 272 271 272 272 271 272 272 273 275 277 278 278 275 270 266 263 262 262 260 257 254 250 246 244 244
53 45 28 23 10 47 61 345 334 47 102 154 163 268 278 283 54 62 48 27 6 356 350 342 341 343 345 351 357 360 359 359 0 1 2 2 2 0 358 356 356 355 353 351 349 348 346 343 342 340 339 340 340 338 335 333 333 336 338 337 330 324 316 308 302 296 291 288 284 281 279 277 275 274 273 272 272 273 273 273 273 274 275 274 271 266 262 259 259 257 255 252 247 242 240 240 242